Location: Chiroubles
(46.1812°N, 4.6660°E)
Time: 15:30:02
(UTC+00:00)

Transit 4A - Pass Details

Date: 01 December 2020
Orbit: 864 x 980 km, 66.8° (Epoch: 26 January)

Event Time Altitude Azimuth Distance (km) Brightness Sun altitude
Rises 06:22:03 0° 186° (S) 3,612 11.2 -7.2°
Reaches altitude 10° 06:24:42 10° 179° (S) 2,685 10.7 -6.8°
Maximum altitude 06:30:30 40° 112° (ESE) 1,396 9.6 -5.9°
Drops below altitude 10° 06:36:24 10° 45° (NE) 2,738 10.6 -5.0°
Sets 06:39:07 0° 39° (NE) 3,692 11.2 -4.5°
